| time (UTC) | temp F | wind direction | speed MPH | gust MPH | rain 1hr in | rain 24hr in | rain mn in | humidity % | barometer mb |
| 20260505031512 | 56 | 213 | 0.0 | 3.0 | 0.00 | 0.00 | 0.00 | 58 | 1003.8 |
| 20260505030036 | 56 | 197 | 2.0 | 5.0 | 0.00 | 0.00 | 0.00 | 57 | 1003.8 |
| 20260505024525 | 56 | 195 | 1.0 | 5.0 | 0.00 | 0.00 | 0.00 | 57 | 1003.8 |
| 20260505023032 | 55 | 175 | 2.0 | 6.0 | 0.00 | 0.01 | 0.00 | 59 | 1003.9 |
| 20260505021512 | 54 | 178 | 1.0 | 5.0 | 0.00 | 0.02 | 0.00 | 63 | 1004.0 |
| 20260505020008 | 54 | 283 | 1.0 | 2.0 | 0.00 | 0.03 | 0.00 | 67 | 1004.0 |
| 20260505014517 | 54 | 283 | 0.0 | 2.0 | 0.00 | 0.04 | 0.00 | 65 | 1004.2 |
| 20260505013003 | 55 | 283 | 0.0 | 1.0 | 0.00 | 0.05 | 0.00 | 65 | 1004.1 |
| 20260505011512 | 56 | 283 | 0.0 | 2.0 | 0.00 | 0.06 | 0.00 | 62 | 1004.2 |
| 20260505010008 | 57 | 283 | 0.0 | 2.0 | 0.00 | 0.08 | 0.00 | 59 | 1004.1 |
| 20260505004527 | 59 | 283 | 0.0 | 2.0 | 0.00 | 0.09 | 0.00 | 56 | 1004.2 |
| 20260505003012 | 61 | 283 | 0.0 | 0.0 | 0.00 | 0.09 | 0.00 | 51 | 1004.2 |
| 20260505001506 | 63 | 283 | 0.0 | 0.0 | 0.00 | 0.09 | 0.00 | 45 | 1004.3 |
| 20260505000016 | 66 | 283 | 0.0 | 3.0 | 0.00 | 0.09 | 0.00 | 40 | 1004.2 |
| 20260504234518 | 68 | 160 | 0.0 | 3.0 | 0.00 | 0.09 | 0.00 | 39 | 1004.0 |
| 20260504233017 | 69 | 251 | 0.0 | 4.0 | 0.00 | 0.09 | 0.00 | 36 | 1003.9 |
| 20260504231512 | 70 | 234 | 0.0 | 4.0 | 0.00 | 0.09 | 0.00 | 35 | 1003.8 |
| 20260504230010 | 70 | 259 | 2.0 | 9.0 | 0.00 | 0.09 | 0.00 | 34 | 1003.9 |
| 20260504224511 | 70 | 274 | 4.0 | 10.0 | 0.00 | 0.09 | 0.00 | 34 | 1004.0 |
| 20260504223012 | 71 | 272 | 2.0 | 7.0 | 0.00 | 0.09 | 0.00 | 32 | 1004.0 |
| 20260504221511 | 70 | 271 | 4.0 | 13.0 | 0.00 | 0.09 | 0.00 | 32 | 1004.1 |
| 20260504220013 | 71 | 295 | 7.0 | 13.0 | 0.00 | 0.09 | 0.00 | 34 | 1004.2 |
| 20260504214512 | 70 | 340 | 2.0 | 11.0 | 0.00 | 0.09 | 0.00 | 39 | 1004.4 |
| 20260504213031 | 71 | 275 | 4.0 | 10.0 | 0.00 | 0.09 | 0.00 | 38 | 1004.3 |
| 20260504211515 | 70 | 240 | 2.0 | 14.0 | 0.00 | 0.09 | 0.00 | 37 | 1004.4 |
| 20260504210014 | 71 | 279 | 6.0 | 14.0 | 0.00 | 0.09 | 0.00 | 37 | 1004.4 |
| 20260504204518 | 69 | 277 | 4.0 | 14.0 | 0.00 | 0.09 | 0.00 | 38 | 1004.5 |
| 20260504203014 | 70 | 229 | 9.0 | 16.0 | 0.00 | 0.09 | 0.00 | 36 | 1004.5 |
| 20260504201518 | 69 | 244 | 5.0 | 12.0 | 0.00 | 0.09 | 0.00 | 38 | 1004.8 |
| 20260504200020 | 71 | 275 | 8.0 | 17.0 | 0.00 | 0.09 | 0.00 | 35 | 1005.0 |
| 20260504194523 | 70 | 294 | 7.0 | 14.0 | 0.00 | 0.09 | 0.00 | 38 | 1005.1 |
| 20260504193016 | 70 | 275 | 5.0 | 14.0 | 0.00 | 0.09 | 0.00 | 41 | 1005.4 |
| 20260504191516 | 69 | 258 | 6.0 | 19.0 | 0.00 | 0.09 | 0.00 | 42 | 1005.4 |
| 20260504190021 | 67 | 240 | 6.0 | 14.0 | 0.00 | 0.09 | 0.00 | 42 | 1005.6 |
| 20260504184536 | 68 | 262 | 7.0 | 16.0 | 0.00 | 0.09 | 0.00 | 41 | 1005.7 |
| 20260504183007 | 67 | 276 | 7.0 | 20.0 | 0.00 | 0.09 | 0.00 | 42 | 1005.8 |
| 20260504181512 | 68 | 305 | 6.0 | 12.0 | 0.00 | 0.09 | 0.00 | 42 | 1005.9 |
| 20260504180020 | 66 | 245 | 8.0 | 16.0 | 0.00 | 0.09 | 0.00 | 44 | 1006.1 |
| 20260504174522 | 66 | 296 | 3.0 | 18.0 | 0.00 | 0.09 | 0.00 | 45 | 1006.2 |
| 20260504173013 | 65 | 259 | 8.0 | 20.0 | 0.00 | 0.09 | 0.00 | 45 | 1006.3 |
| 20260504171511 | 65 | 284 | 6.0 | 16.0 | 0.00 | 0.09 | 0.00 | 46 | 1006.4 |
| 20260504081511 | 42 | 227 | 1.0 | 4.0 | 0.00 | 0.09 | 0.00 | 95 | 1008.3 |
| 20260504050010 | 43 | 186 | 0.0 | 2.0 | 0.00 | 0.09 | 0.00 | 96 | 1009.3 |
| 20260504044515 | 43 | 64 | 1.0 | 2.0 | 0.00 | 0.09 | 0.00 | 96 | 1009.5 |
| 20260504043018 | 43 | 65 | 0.0 | 1.0 | 0.00 | 0.09 | 0.00 | 95 | 1009.7 |
| 20260504041522 | 43 | 65 | 0.0 | 5.0 | 0.00 | 0.09 | 0.00 | 95 | 1009.7 |
| 20260504040028 | 43 | 178 | 2.0 | 3.0 | 0.00 | 0.09 | 0.00 | 95 | 1009.8 |
| 20260504034508 | 43 | 178 | 0.0 | 3.0 | 0.00 | 0.09 | 0.09 | 95 | 1009.9 |
| 20260504033016 | 43 | 178 | 1.0 | 3.0 | 0.01 | 0.09 | 0.09 | 95 | 1009.6 |